User: anonymous
Location: Lawrence
(38.9720°N, 95.2350°W)
Time: 04:26:38
(UTC-05:00)
Language:

SL-8 R/B - Orbit

View from above orbital plane
View from above orbital plane
View from above satellite
View from above satellite

Ground track
Ground track

The orbit data is extracted from the following two-line orbital elements,

1 33245U 08036B   14121.75172406  .12557096  29743-5  18929-3 0  8441
2 33245 098.0165 205.4536 0016618 241.2837 118.5999 16.47414932324262
Epoch (UTC): 01 May 2014 18:02:28
Eccentricity: 0.0016618
inclination: 98.0165°
perigee height: 135 km
apogee height: 157 km
right ascension of ascending node: 205.4536°
argument of perigee: 241.2837°
revolutions per day: 16.47414932
mean anomaly at epoch: 118.5999°
orbit number at epoch: 32426

The dashed part of the orbit path shows where the satellite is in the earth's shadow,  

DLR